SL-14 DEB, 45303

Orbit data source: Space-Track

SL-14 DEB, 45303 is space debris in LEO originally from a launch on Thu, 15 Aug 1991 UTC launched from the Plesetsk Missile And Space Complex (PKMTR). Debris objects in space refer to the collection of defunct objects orbiting the Earth. Examples of debris include non-operational satellites, rocket bodies, and fragments generated from explosions, collisions, or faulty payload assembly.

Loading next visibility...
Identifier
45303, 1991-056AR
Orbit
LEO
Country
Flag of CISCIS
Related business
Manufacturer
Unknown
Mission
Spacecraft
Bus & Motor
Unknown
Mass
Unknown
Launch date (UTC)
1991-08-15 (34 years ago)
Launch vehicle
Unknown
Launch site
Plesetsk Missile And Space Complex (PKMTR)
Object type
Payload
Rocket body
Debris
Shape & HBR
Unknown shape, 0.1 m
Radar Cross Section
Small (<0.1 m²)

Expand to show TLE details & history
Last TLE update: 20 hours ago

TLE from 20 hours ago
0 SL-14 DEB
1 45303U 91056AR  25350.11517253  .00016942  00000-0  84973-2 0  9991
2 45303  82.6120 135.7031 0122323 318.6776  40.5191 14.12672735290747
Epoch: 2025-12-16T02:45Z
TLE epoch observation values (Epoch: 2025-12-16T02:45:50.906Z)
Latitude
-0.00009°
Longitude
9.23696°
Altitude
786.418 km
Speed
7.495 km/s
True Right ascension
09h 02m 48s
True Declination
0° 00' 00"
Sunlit
Object was in full shadow at epoch
Visualization orbit readout
Latitude
Unknown
Longitude
Unknown
Altitude
Unknown
Speed
Unknown
Apparent Right ascension
Unknown
Apparent Declination
Unknown
Sunlit
N/A
Visualization observer readout
Local Sidereal Time
21:38:48
Azimuth
Unknown
Elevation
Unknown
Doppler factor
Unknown
Orbital elements
Apogee altitude
935.734 km
Perigee altitude
758.965 km
Semi-major axis
7,225.486 km
Eccentricity
0.01223
Inclination
82.612°
RAAN
135.7031°
Arg. of periapsis
318.6776°
True anomaly
41.44046°
Mean anomaly
40.5191°
Eccentric anomaly
40.97871°
Mean motion
3.5338 °/min
Orbital period
101.87 mins
BSTAR
0.0084973
Loading maneuver chart data...
Computing Atmospheric mass density...
Loading historical data...
Loading historical data...
Loading historical data...
Loading historical data...
Loading historical data...
Loading historical data...
Loading historical data...

Documentation

Showing up to 5 results
|